Flag for U.S.A. Weather past 2 weeks in Pomona, California, U.S.A.

Now
62 °F

Passing clouds.


Feels Like: 62 °F
Forecast: 59 / 80 °F
Wind: No wind

Location: Chino Airport

Current Time: Oct 25, 2014 at 7:42:47 AM

Latest Report: Oct 25, 2014 at 6:53 AM


Visibility: 10 mi

Pressure: 30.00 "Hg

Humidity: 56%

Dew point: 46 °F

Location of PomonaLocation

Historic Weather in Pomona — Graph

°F

Pomona temperature yesterday

Maximum temperature yesterday: 94 °F (at 1:53 PM)
Minimum temperature yesterday: 53 °F (at 5:53 AM)
Average temperature yesterday: 71 °F

Past Weeks' High & Low Weather Summary

 TemperatureHumidityPressure
High94 °F (Oct 24, 1:53 PM)100% (Oct 11, 6:53 AM)30.04 "Hg (Oct 11, 6:53 AM)
Low53 °F (Oct 22, 4:53 AM)11% (Oct 24, 1:53 PM)29.82 "Hg (Oct 18, 4:53 PM)
Average68 °F69%29.93 "Hg
* Reported Oct 10 6:01 AM — Oct 25 6:53 AM, Pomona, Weather by CustomWeather, © 2014

Note: Actual official high and low records may vary slightly from our data, if they occured in-between our weather recording intervals... More about our weather records

Advertising

Pomona weather history for previous 24 hours

 ConditionsComfort  
Time TempWeatherWind HumidityBarometerVisibility
6:53 AM
Oct 25
62 °FPassing clouds.No wind56%30.00 "Hg10 mi
5:53 AM61 °FOvercast.No wind62%29.99 "Hg5 mi
4:53 AM59 °FOvercast.3 mph69%29.98 "Hg8 mi
3:53 AM60 °FPassing clouds.No wind56%29.98 "Hg9 mi
2:53 AM58 °FPassing clouds.5 mph60%30.01 "Hg7 mi
1:53 AM61 °FClear.No wind54%30.01 "Hg9 mi
12:53 AM60 °FClear.No wind53%30.01 "Hg6 mi
11:53 PM
Oct 24
64 °FClear.3 mph45%30.01 "Hg7 mi
10:53 PM63 °FClear.No wind50%30.00 "Hg6 mi
9:53 PM68 °FClear.3 mph38%29.99 "Hg8 mi
8:53 PM71 °FClear.6 mph30%29.98 "Hg9 mi
7:53 PM73 °FClear.7 mph27%29.96 "Hg10 mi
6:53 PM74 °FSunny.8 mph27%29.95 "Hg10 mi
5:53 PM82 °FSunny.12 mph14%29.93 "Hg10 mi
4:53 PM87 °FSunny.13 mph14%29.92 "Hg10 mi
3:53 PM90 °FSunny.13 mph19%29.92 "Hg10 mi
2:53 PM92 °FSunny.14 mph18%29.91 "Hg10 mi
1:53 PM94 °FSunny.9 mph11%29.92 "Hg10 mi
12:53 PM91 °FSunny.6 mph13%29.95 "Hg10 mi
11:53 AM86 °FSunny.No wind20%29.98 "Hg10 mi
10:53 AM80 °FSunny.3 mph27%30.00 "Hg10 mi
9:53 AM72 °FSunny.No wind40%30.01 "Hg10 mi
8:53 AM66 °FSunny.No wind50%30.02 "Hg10 mi
7:53 AM55 °FClear.3 mph83%30.01 "Hg10 mi
Weather by CustomWeather, © 2014

See weather overviewHow to use our weather pages